Selawik, AK

6:18 PM AKST on December 17, 2017 (GMT -0900)
Selawik

Weather History for PASK - March, 2013

Change the Weather History Date:

Sunday, March 10, 2013

  Actual Average Record
Temperature  
Mean Temperature 6 °F -  
Max Temperature 15 °F 4 °F 23 °F (2005)
Min Temperature -2 °F -4 °F -41 °F (1999)
Degree Days  
Heating Degree Days 58    
Moisture  
Dew Point 2 °F    
Average Humidity 86    
Maximum Humidity 93    
Minimum Humidity 78    
Precipitation  
Precipitation 0.00 in - - ()
Sea Level Pressure  
Sea Level Pressure 30.27 in    
Wind  
Wind Speed 12 mph (WNW)    
Max Wind Speed 21 mph    
Max Gust Speed 28 mph    
Visibility 7 miles    
Events      
Averages and records for this station are not official NWS values.
T = Trace of Precipitation, MM = Missing Value Source: NWS Daily Summary

Daily Weather History Graph

Daily Weather History Graph

Search for Another Location

Airport or City:

Trip Planner

Search our weather history database for the weather conditions in past years. The results will help you decide how hot, cold, wet, or windy it might be!

Date:

Astronomy

Mar. 10, 2013 Rise Set
Actual Time 9:17 AM AKDT 8:24 PM AKDT
Civil Twilight 8:25 AM AKDT 9:16 PM AKDT
Nautical Twilight 7:23 AM AKDT 10:18 PM AKDT
Astronomical Twilight 6:16 AM AKDT 11:27 PM AKDT
Moon 8:35 AM AKDT (3/10) 7:45 PM AKDT (3/10)
Length of Visible Light 12h 51m
Length of Day
11h 07m
Waning Crescent, 1% of the Moon is Illuminated
Mar 10
Waning Crescent
Mar 11
New
Mar 19
First Quarter
Mar 27
Full
Apr 2
Last Quarter

Hourly Weather History & Observations

Time (AKDT) Temp. Windchill Dew Point Humidity Pressure Visibility Wind Dir Wind Speed Gust Speed Precip Events Conditions
12:16 AM -0.4 °F -18.4 °F -2.2 °F 92% 29.99 in 2.5 mi NE 12.7 mph - N/A   Clear
12:36 AM -0.4 °F -18.4 °F -4.0 °F 85% 30.00 in 9.0 mi ENE 12.7 mph - N/A   Clear
12:56 AM -0.4 °F -17.6 °F -5.8 °F 78% 30.00 in 10.0 mi ENE 11.5 mph - N/A   Clear
1:16 AM -0.4 °F -18.4 °F -2.2 °F 92% 29.99 in 10.0 mi ENE 12.7 mph - N/A   Mostly Cloudy
1:36 AM 1.4 °F -15.3 °F -2.2 °F 85% 30.00 in 7.0 mi ENE 11.5 mph - N/A   Mostly Cloudy
1:56 AM 1.4 °F -15.3 °F -0.4 °F 92% 30.01 in 5.0 mi ENE 11.5 mph - N/A   Mostly Cloudy
3:16 AM 1.4 °F -16.9 °F -0.4 °F 92% 30.01 in 4.0 mi ENE 13.8 mph - N/A   Partly Cloudy
4:36 AM 6.8 °F -9.3 °F 3.2 °F 85% 30.03 in 10.0 mi ENE 12.7 mph - N/A   Mostly Cloudy
4:56 AM 5.0 °F -10.0 °F 1.4 °F 85% 30.03 in 10.0 mi ENE 10.4 mph - N/A   Mostly Cloudy
5:16 AM 6.8 °F -7.8 °F 5.0 °F 92% 30.04 in 10.0 mi ENE 10.4 mph - N/A   Partly Cloudy
5:36 AM 6.8 °F -7.8 °F 3.2 °F 85% 30.04 in 10.0 mi ENE 10.4 mph - N/A   Scattered Clouds
5:56 AM 6.8 °F -7.8 °F 5.0 °F 92% 30.05 in 10.0 mi NE 10.4 mph - N/A   Partly Cloudy
6:16 AM 6.8 °F -5.9 °F 3.2 °F 85% 30.06 in 10.0 mi NE 8.1 mph - N/A   Partly Cloudy
6:36 AM 5.0 °F -5.6 °F 1.4 °F 85% 30.08 in 10.0 mi ESE 5.8 mph - N/A   Partly Cloudy
6:56 AM 3.2 °F -12.2 °F 1.4 °F 92% 30.08 in 10.0 mi East 10.4 mph - N/A   Clear
7:16 AM 3.2 °F -13.1 °F -0.4 °F 85% 30.09 in 10.0 mi East 11.5 mph - N/A   Clear
7:36 AM 3.2 °F -10.3 °F 1.4 °F 92% 30.09 in 10.0 mi ENE 8.1 mph - N/A   Partly Cloudy
7:56 AM 3.2 °F -11.3 °F -0.4 °F 85% 30.10 in 10.0 mi East 9.2 mph - N/A   Scattered Clouds
8:16 AM 1.4 °F -13.5 °F -0.4 °F 92% 30.10 in 10.0 mi East 9.2 mph - N/A   Clear
8:36 AM 3.2 °F -13.1 °F 1.4 °F 92% 30.11 in 10.0 mi ENE 11.5 mph - N/A   Clear
8:56 AM 1.4 °F -14.5 °F -4.0 °F 78% 30.12 in 10.0 mi ENE 10.4 mph - N/A   Partly Cloudy
9:16 AM 1.4 °F -12.5 °F -2.2 °F 85% 30.13 in 10.0 mi ENE 8.1 mph - N/A   Scattered Clouds
9:36 AM 1.4 °F -11.3 °F -2.2 °F 85% 30.14 in 10.0 mi ENE 6.9 mph - N/A   Overcast
9:56 AM 1.4 °F -13.5 °F -2.2 °F 85% 30.14 in 10.0 mi ENE 9.2 mph - N/A   Mostly Cloudy
10:16 AM 1.4 °F -12.5 °F -2.2 °F 85% 30.15 in 10.0 mi ENE 8.1 mph - N/A   Mostly Cloudy
10:36 AM 1.4 °F -12.5 °F -0.4 °F 92% 30.16 in 10.0 mi ENE 8.1 mph - N/A   Overcast
10:56 AM 5.0 °F -4.1 °F 3.2 °F 92% 30.17 in 10.0 mi NE 4.6 mph - N/A   Overcast
11:16 AM 6.8 °F - 3.2 °F 85% 30.19 in 10.0 mi Calm Calm - N/A   Overcast
11:36 AM 6.8 °F - 3.2 °F 85% 30.20 in 9.0 mi Calm Calm - N/A   Overcast
11:56 AM 8.6 °F -1.3 °F 6.8 °F 92% 30.22 in 1.8 mi WSW 5.8 mph - N/A   Overcast
12:16 PM 8.6 °F -1.3 °F 6.8 °F 92% 30.22 in 1.2 mi SW 5.8 mph - N/A   Overcast
12:36 PM 10.4 °F 2.2 °F 8.6 °F 92% 30.23 in 1.5 mi WSW 4.6 mph - N/A   Overcast
12:56 PM 10.4 °F 0.8 °F 8.6 °F 92% 30.25 in 2.0 mi WSW 5.8 mph - N/A   Overcast
1:16 PM 12.2 °F 2.9 °F 8.6 °F 85% 30.26 in 2.0 mi WSW 5.8 mph - N/A   Overcast
1:36 PM 12.2 °F 2.9 °F 10.4 °F 92% 30.27 in 3.0 mi West 5.8 mph - N/A   Overcast
1:56 PM 15.8 °F 6.1 °F 12.2 °F 86% 30.28 in 5.0 mi West 6.9 mph - N/A   Overcast
2:16 PM 15.8 °F 7.2 °F 14.0 °F 93% 30.29 in 9.0 mi WSW 5.8 mph - N/A   Overcast
2:36 PM 15.8 °F 4.2 °F 10.4 °F 79% 30.30 in 10.0 mi West 9.2 mph - N/A   Overcast
2:56 PM 15.8 °F 4.2 °F 12.2 °F 86% 30.31 in 10.0 mi West 9.2 mph - N/A   Overcast
3:16 PM 15.8 °F 3.4 °F 12.2 °F 86% 30.32 in 5.0 mi West 10.4 mph - N/A   Overcast
3:36 PM 15.8 °F 4.2 °F 12.2 °F 86% 30.33 in 9.0 mi West 9.2 mph - N/A   Overcast
3:56 PM 15.8 °F 2.1 °F 12.2 °F 86% 30.33 in 10.0 mi West 12.7 mph - N/A   Overcast
4:16 PM 15.8 °F 1.4 °F 12.2 °F 86% 30.34 in 10.0 mi West 13.8 mph - N/A   Overcast
4:36 PM 15.8 °F 1.4 °F 10.4 °F 79% 30.35 in 5.0 mi West 13.8 mph - N/A   Overcast
4:56 PM 15.8 °F 0.9 °F 10.4 °F 79% 30.36 in 10.0 mi West 15.0 mph - N/A   Overcast
5:16 PM 14.0 °F -2.5 °F 10.4 °F 86% 30.36 in 6.0 mi West 17.3 mph - N/A   Overcast
5:36 PM 12.2 °F -4.8 °F 8.6 °F 85% 30.37 in 6.0 mi West 17.3 mph 21.9 mph N/A   Mostly Cloudy
5:56 PM 10.4 °F -7.2 °F 5.0 °F 79% 30.38 in 10.0 mi West 17.3 mph 21.9 mph N/A   Partly Cloudy
6:16 PM 8.6 °F -9.5 °F 3.2 °F 79% 30.39 in 8.0 mi West 17.3 mph - N/A   Clear
6:36 PM 6.8 °F -11.8 °F 1.4 °F 79% 30.40 in 6.0 mi West 17.3 mph 23.0 mph N/A   Clear
6:56 PM 6.8 °F -11.3 °F 1.4 °F 79% 30.42 in 8.0 mi West 16.1 mph 24.2 mph N/A   Mostly Cloudy
7:16 PM 6.8 °F -11.8 °F 1.4 °F 79% 30.42 in 8.0 mi West 17.3 mph 21.9 mph N/A   Overcast
7:36 PM 5.0 °F -15.7 °F 1.4 °F 85% 30.44 in 7.0 mi West 20.7 mph 27.6 mph N/A   Mostly Cloudy
7:56 PM 3.2 °F -16.5 °F -0.4 °F 85% 30.46 in 3.0 mi West 17.3 mph 23.0 mph N/A   Overcast
8:16 PM 3.2 °F -17.6 °F -0.4 °F 85% 30.46 in 3.0 mi West 19.6 mph 27.6 mph N/A   Overcast
8:36 PM 3.2 °F -17.1 °F -0.4 °F 85% 30.48 in 4.0 mi West 18.4 mph 26.5 mph N/A   Overcast
8:56 PM 3.2 °F -17.1 °F -0.4 °F 85% 30.48 in 3.0 mi West 18.4 mph 25.3 mph N/A   Overcast
9:16 PM 1.4 °F -20.5 °F -2.2 °F 85% 30.49 in 4.0 mi West 20.7 mph 27.6 mph N/A   Scattered Clouds
9:36 PM 1.4 °F -20.5 °F -2.2 °F 85% 30.50 in 5.0 mi West 20.7 mph 27.6 mph N/A   Clear
9:56 PM 1.4 °F -20.5 °F -2.2 °F 85% 30.51 in 5.0 mi West 20.7 mph 26.5 mph N/A   Clear
10:16 PM 1.4 °F -19.4 °F -4.0 °F 78% 30.51 in 6.0 mi West 18.4 mph 25.3 mph N/A   Clear
10:36 PM -0.4 °F -22.3 °F -4.0 °F 85% 30.52 in 7.0 mi West 19.6 mph 25.3 mph N/A   Clear
10:56 PM -0.4 °F -21.7 °F -5.8 °F 78% 30.54 in 6.0 mi West 18.4 mph 25.3 mph N/A   Clear
11:16 PM -0.4 °F -21.7 °F -5.8 °F 78% 30.55 in 7.0 mi West 18.4 mph 25.3 mph N/A   Clear
11:36 PM -0.4 °F -21.7 °F -5.8 °F 78% 30.56 in 8.0 mi West 18.4 mph 25.3 mph N/A   Clear
11:56 PM -2.2 °F -23.5 °F -5.8 °F 85% 30.57 in 7.0 mi West 17.3 mph 23.0 mph N/A   Clear
12:16 AM -2.2 °F -24.7 °F -5.8 °F 85% 30.57 in 7.0 mi West 19.6 mph 24.2 mph N/A   Clear
12:36 AM -2.2 °F -24.1 °F -7.6 °F 78% 30.58 in 8.0 mi West 18.4 mph 24.2 mph N/A   Clear
12:56 AM -2.2 °F -23.5 °F -5.8 °F 85% 30.60 in 8.0 mi West 17.3 mph 23.0 mph N/A   Clear